Time,TemperatureF,DewpointF,PressureIn,WindDirection,WindDirectionDegrees,WindSpeedMPH,WindSpeedGustMPH,Humidity,HourlyPrecipIn,Conditions,Clouds,dailyrainin,SolarRadiationWatts/m^2,SoftwareType,DateUTC
2013-08-28 00:05:00,76.1,74.0,30.01,NNW,333,0.0,0.0,92,0.00,,,0.00,0,weatherlink.com 1.10,2013-08-28 04:05:00,
2013-08-28 00:20:00,76.1,74.0,30.00,NNW,333,0.0,0.0,92,0.00,,,0.00,0,weatherlink.com 1.10,2013-08-28 04:20:00,
2013-08-28 00:35:00,76.3,74.0,30.00,NNW,333,0.0,0.0,92,0.00,,,0.00,0,weatherlink.com 1.10,2013-08-28 04:35:00,
2013-08-28 00:50:00,76.6,74.0,29.99,NNW,333,0.0,0.0,92,0.00,,,0.00,0,weatherlink.com 1.10,2013-08-28 04:50:00,
2013-08-28 01:05:00,76.1,74.0,29.99,NNW,333,0.0,0.0,92,0.00,,,0.00,0,weatherlink.com 1.10,2013-08-28 05:05:00,
2013-08-28 01:20:00,75.9,74.0,29.98,NNW,333,0.0,0.0,92,0.00,,,0.00,0,weatherlink.com 1.10,2013-08-28 05:20:00,
2013-08-28 01:35:00,75.6,74.0,29.98,NNW,333,0.0,0.0,93,0.00,,,0.00,0,weatherlink.com 1.10,2013-08-28 05:35:00,
2013-08-28 01:50:00,75.4,73.0,29.97,NNW,333,0.0,0.0,92,0.00,,,0.00,0,weatherlink.com 1.10,2013-08-28 05:50:00,
2013-08-28 02:05:00,75.3,73.0,29.97,NNW,333,0.0,0.0,92,0.00,,,0.00,0,weatherlink.com 1.10,2013-08-28 06:05:00,
2013-08-28 02:20:00,74.8,72.0,29.96,NNW,333,0.0,0.0,92,0.00,,,0.00,0,weatherlink.com 1.10,2013-08-28 06:20:00,
2013-08-28 02:35:00,74.7,73.0,29.96,NNW,333,0.0,0.0,93,0.00,,,0.00,0,weatherlink.com 1.10,2013-08-28 06:35:00,
2013-08-28 02:50:00,74.4,72.0,29.95,NNW,333,0.0,0.0,93,0.00,,,0.00,0,weatherlink.com 1.10,2013-08-28 06:50:00,
2013-08-28 03:05:00,74.3,72.0,29.95,NNW,333,0.0,0.0,93,0.00,,,0.00,0,weatherlink.com 1.10,2013-08-28 07:05:00,
2013-08-28 03:20:00,74.3,72.0,29.95,NNW,333,0.0,0.0,93,0.00,,,0.00,0,weatherlink.com 1.10,2013-08-28 07:20:00,
2013-08-28 03:35:00,74.2,72.0,29.95,NNW,333,0.0,0.0,92,0.00,,,0.00,0,weatherlink.com 1.10,2013-08-28 07:35:00,
2013-08-28 03:50:00,74.1,72.0,29.95,NNW,333,0.0,0.0,92,0.00,,,0.00,0,weatherlink.com 1.10,2013-08-28 07:50:00,
2013-08-28 04:05:00,74.0,72.0,29.95,NNW,333,0.0,0.0,92,0.00,,,0.00,0,weatherlink.com 1.10,2013-08-28 08:05:00,
2013-08-28 04:20:00,74.1,72.0,29.95,NNW,333,0.0,0.0,92,0.00,,,0.00,0,weatherlink.com 1.10,2013-08-28 08:20:00,
2013-08-28 04:35:00,74.0,72.0,29.95,NNW,333,0.0,0.0,92,0.00,,,0.00,0,weatherlink.com 1.10,2013-08-28 08:35:00,
2013-08-28 04:50:00,73.9,72.0,29.95,NNW,333,0.0,1.0,93,0.00,,,0.00,0,weatherlink.com 1.10,2013-08-28 08:50:00,
2013-08-28 05:05:00,73.8,72.0,29.95,NNW,333,0.0,0.0,93,0.00,,,0.00,0,weatherlink.com 1.10,2013-08-28 09:05:00,
2013-08-28 05:20:00,74.1,72.0,29.95,NNW,333,0.0,1.0,93,0.00,,,0.00,0,weatherlink.com 1.10,2013-08-28 09:20:00,
2013-08-28 05:35:00,73.8,72.0,29.96,NNW,333,0.0,1.0,93,0.00,,,0.00,0,weatherlink.com 1.10,2013-08-28 09:35:00,
2013-08-28 05:50:00,74.2,72.0,29.96,NNW,333,0.0,1.0,93,0.00,,,0.00,0,weatherlink.com 1.10,2013-08-28 09:50:00,
2013-08-28 06:05:00,74.4,72.0,29.96,NNW,333,0.0,0.0,93,0.00,,,0.00,0,weatherlink.com 1.10,2013-08-28 10:05:00,
2013-08-28 06:20:00,74.6,73.0,29.96,NNW,333,0.0,1.0,93,0.00,,,0.00,0,weatherlink.com 1.10,2013-08-28 10:20:00,
2013-08-28 06:35:00,74.6,73.0,29.97,NNW,333,0.0,0.0,93,0.00,,,0.00,0,weatherlink.com 1.10,2013-08-28 10:35:00,
2013-08-28 06:50:00,74.7,73.0,29.97,NNW,333,0.0,1.0,93,0.00,,,0.00,0,weatherlink.com 1.10,2013-08-28 10:50:00,
2013-08-28 07:05:00,74.8,73.0,29.97,NNW,333,0.0,1.0,93,0.00,,,0.00,0,weatherlink.com 1.10,2013-08-28 11:05:00,
2013-08-28 07:20:00,75.1,73.0,29.98,NNW,333,0.0,1.0,94,0.00,,,0.00,12,weatherlink.com 1.10,2013-08-28 11:20:00,
2013-08-28 07:35:00,75.6,74.0,29.98,ESE,123,0.0,2.0,93,0.01,,,0.01,46,weatherlink.com 1.10,2013-08-28 11:35:00,
2013-08-28 07:50:00,76.2,74.0,29.98,ESE,123,0.0,1.0,93,0.01,,,0.01,58,weatherlink.com 1.10,2013-08-28 11:50:00,
2013-08-28 08:05:00,76.5,74.0,29.99,ESE,123,0.0,0.0,93,0.01,,,0.01,56,weatherlink.com 1.10,2013-08-28 12:05:00,
2013-08-28 08:21:00,77.6,76.0,29.99,ESE,123,1.0,1.0,93,0.01,,,0.01,84,weatherlink.com 1.10,2013-08-28 12:21:00,
2013-08-28 08:36:00,76.4,74.0,29.99,ESE,123,0.0,1.0,92,0.00,,,0.01,123,weatherlink.com 1.10,2013-08-28 12:36:00,
2013-08-28 08:51:00,76.7,74.0,29.99,SW,229,1.0,2.0,92,0.00,,,0.01,130,weatherlink.com 1.10,2013-08-28 12:51:00,
2013-08-28 09:06:00,79.2,76.0,30.00,SW,229,0.0,1.0,90,0.00,,,0.01,450,weatherlink.com 1.10,2013-08-28 13:06:00,
2013-08-28 09:21:00,81.5,77.0,30.00,SW,230,0.0,1.0,87,0.00,,,0.01,234,weatherlink.com 1.10,2013-08-28 13:21:00,
2013-08-28 09:36:00,82.2,76.0,30.01,ESE,105,1.0,3.0,82,0.00,,,0.01,258,weatherlink.com 1.10,2013-08-28 13:36:00,
2013-08-28 09:51:00,82.3,76.0,30.01,East,86,2.0,6.0,80,0.00,,,0.01,292,weatherlink.com 1.10,2013-08-28 13:51:00,
2013-08-28 10:06:00,82.5,76.0,30.01,East,91,3.0,6.0,80,0.00,,,0.01,156,weatherlink.com 1.10,2013-08-28 14:06:00,
2013-08-28 10:21:00,82.6,76.0,30.02,East,101,4.0,8.0,79,0.00,,,0.01,380,weatherlink.com 1.10,2013-08-28 14:21:00,
2013-08-28 10:36:00,82.9,75.0,30.02,East,96,2.0,8.0,78,0.00,,,0.01,318,weatherlink.com 1.10,2013-08-28 14:36:00,
2013-08-28 10:51:00,82.7,75.0,30.02,ESE,120,5.0,9.0,78,0.00,,,0.01,209,weatherlink.com 1.10,2013-08-28 14:51:00,
2013-08-28 11:06:00,81.5,75.0,30.01,SSW,209,1.0,4.0,81,0.00,,,0.01,185,weatherlink.com 1.10,2013-08-28 15:06:00,
2013-08-28 11:21:00,80.0,76.0,30.01,SSW,208,0.0,2.0,88,0.01,,,0.02,462,weatherlink.com 1.10,2013-08-28 15:21:00,
2013-08-28 11:36:00,79.4,75.0,30.02,WSW,242,3.0,4.0,87,0.02,,,0.03,40,weatherlink.com 1.10,2013-08-28 15:36:00,
2013-08-28 11:51:00,78.4,75.0,30.02,SW,232,1.0,3.0,89,0.02,,,0.03,234,weatherlink.com 1.10,2013-08-28 15:51:00,
2013-08-28 12:06:00,79.0,75.0,30.02,SSW,211,0.0,4.0,88,0.02,,,0.03,44,weatherlink.com 1.10,2013-08-28 16:06:00,
2013-08-28 12:21:00,80.1,76.0,30.02,South,188,1.0,5.0,88,0.01,,,0.03,1320,weatherlink.com 1.10,2013-08-28 16:21:00,
2013-08-28 12:36:00,80.9,76.0,30.02,SSW,203,4.0,7.0,85,0.00,,,0.03,274,weatherlink.com 1.10,2013-08-28 16:36:00,
2013-08-28 13:06:00,81.5,76.0,30.01,East,95,0.0,3.0,83,0.00,,,0.03,422,weatherlink.com 1.10,2013-08-28 17:06:00,
2013-08-28 13:21:00,82.4,75.0,30.01,SSE,149,3.0,9.0,77,0.00,,,0.03,526,weatherlink.com 1.10,2013-08-28 17:21:00,
2013-08-28 13:36:00,84.3,76.0,30.02,SE,131,2.0,7.0,76,0.00,,,0.03,967,weatherlink.com 1.10,2013-08-28 17:36:00,
2013-08-28 14:21:00,86.0,74.0,30.01,South,173,2.0,8.0,67,0.00,,,0.03,471,weatherlink.com 1.10,2013-08-28 18:21:00,
2013-08-28 14:36:00,85.4,74.0,30.00,East,88,2.0,9.0,69,0.00,,,0.03,499,weatherlink.com 1.10,2013-08-28 18:36:00,
2013-08-28 14:51:00,86.1,75.0,29.99,East,87,3.0,7.0,69,0.00,,,0.03,696,weatherlink.com 1.10,2013-08-28 18:51:00,
2013-08-28 15:06:00,85.8,73.0,29.98,ESE,109,6.0,8.0,66,0.00,,,0.03,983,weatherlink.com 1.10,2013-08-28 19:06:00,
2013-08-28 15:21:00,86.2,74.0,29.98,ESE,105,2.0,8.0,68,0.00,,,0.03,545,weatherlink.com 1.10,2013-08-28 19:21:00,
2013-08-28 15:36:00,86.1,73.0,29.98,SE,146,2.0,9.0,66,0.00,,,0.03,777,weatherlink.com 1.10,2013-08-28 19:36:00,
2013-08-28 15:51:00,86.4,74.0,29.97,East,90,4.0,11.0,67,0.00,,,0.03,724,weatherlink.com 1.10,2013-08-28 19:51:00,
2013-08-28 16:06:00,85.6,74.0,29.96,SE,126,8.0,10.0,68,0.00,,,0.03,696,weatherlink.com 1.10,2013-08-28 20:06:00,
2013-08-28 16:21:00,85.5,75.0,29.96,ESE,105,3.0,9.0,70,0.00,,,0.03,640,weatherlink.com 1.10,2013-08-28 20:21:00,
2013-08-28 16:36:00,85.1,75.0,29.95,East,86,7.0,11.0,71,0.00,,,0.03,599,weatherlink.com 1.10,2013-08-28 20:36:00,
2013-08-28 16:51:00,85.1,75.0,29.95,ESE,117,4.0,11.0,71,0.00,,,0.03,554,weatherlink.com 1.10,2013-08-28 20:51:00,
2013-08-28 17:06:00,85.1,75.0,29.95,East,95,6.0,9.0,72,0.00,,,0.03,541,weatherlink.com 1.10,2013-08-28 21:06:00,
2013-08-28 17:21:00,84.8,75.0,29.95,ESE,116,3.0,10.0,73,0.00,,,0.03,165,weatherlink.com 1.10,2013-08-28 21:21:00,
2013-08-28 17:36:00,84.9,76.0,29.94,SE,129,5.0,11.0,74,0.00,,,0.03,181,weatherlink.com 1.10,2013-08-28 21:36:00,
2013-08-28 17:51:00,84.7,75.0,29.95,East,88,7.0,10.0,73,0.00,,,0.03,350,weatherlink.com 1.10,2013-08-28 21:51:00,
2013-08-28 18:06:00,84.1,75.0,29.95,ESE,113,3.0,10.0,75,0.00,,,0.03,274,weatherlink.com 1.10,2013-08-28 22:06:00,
2013-08-28 18:21:00,83.9,76.0,29.95,SE,135,2.0,8.0,76,0.00,,,0.03,49,weatherlink.com 1.10,2013-08-28 22:21:00,
2013-08-28 18:36:00,83.7,75.0,29.96,ESE,106,7.0,8.0,76,0.00,,,0.03,116,weatherlink.com 1.10,2013-08-28 22:36:00,
2013-08-28 18:51:00,83.5,76.0,29.96,ESE,114,6.0,9.0,77,0.00,,,0.03,49,weatherlink.com 1.10,2013-08-28 22:51:00,
2013-08-28 19:06:00,82.5,75.0,29.96,ESE,103,3.0,10.0,78,0.00,,,0.03,12,weatherlink.com 1.10,2013-08-28 23:06:00,
2013-08-28 19:21:00,81.5,74.0,29.96,East,85,2.0,7.0,79,0.00,,,0.03,7,weatherlink.com 1.10,2013-08-28 23:21:00,
2013-08-28 19:36:00,81.3,75.0,29.97,ESE,110,1.0,6.0,80,0.00,,,0.03,0,weatherlink.com 1.10,2013-08-28 23:36:00,
2013-08-28 19:52:00,81.4,75.0,29.97,East,86,3.0,6.0,80,0.00,,,0.03,0,weatherlink.com 1.10,2013-08-28 23:52:00,
2013-08-28 20:07:00,81.6,75.0,29.98,ESE,107,4.0,4.0,80,0.00,,,0.03,0,weatherlink.com 1.10,2013-08-29 00:07:00,
2013-08-28 20:22:00,81.6,75.0,29.98,East,80,0.0,3.0,81,0.00,,,0.03,0,weatherlink.com 1.10,2013-08-29 00:22:00,
2013-08-28 20:37:00,81.4,75.0,29.98,ESE,104,1.0,3.0,82,0.00,,,0.03,0,weatherlink.com 1.10,2013-08-29 00:37:00,
2013-08-28 20:52:00,81.3,75.0,29.98,East,86,0.0,3.0,82,0.00,,,0.03,0,weatherlink.com 1.10,2013-08-29 00:52:00,
2013-08-28 21:07:00,81.4,75.0,29.99,East,92,0.0,2.0,82,0.00,,,0.03,0,weatherlink.com 1.10,2013-08-29 01:07:00,
2013-08-28 21:22:00,81.3,76.0,30.00,East,92,0.0,1.0,83,0.00,,,0.03,0,weatherlink.com 1.10,2013-08-29 01:22:00,
2013-08-28 21:37:00,81.2,76.0,30.00,East,92,0.0,0.0,83,0.00,,,0.03,0,weatherlink.com 1.10,2013-08-29 01:37:00,
2013-08-28 21:52:00,80.9,76.0,30.00,East,92,0.0,0.0,84,0.00,,,0.03,0,weatherlink.com 1.10,2013-08-29 01:52:00,
2013-08-28 22:07:00,80.6,75.0,30.01,East,92,0.0,1.0,84,0.00,,,0.03,0,weatherlink.com 1.10,2013-08-29 02:07:00,
2013-08-28 22:22:00,80.0,75.0,30.01,East,92,0.0,1.0,85,0.00,,,0.03,0,weatherlink.com 1.10,2013-08-29 02:22:00,
2013-08-28 22:37:00,79.6,75.0,30.01,East,91,0.0,1.0,85,0.00,,,0.03,0,weatherlink.com 1.10,2013-08-29 02:37:00,
2013-08-28 22:52:00,79.3,75.0,30.02,East,91,0.0,1.0,86,0.00,,,0.03,0,weatherlink.com 1.10,2013-08-29 02:52:00,
2013-08-28 23:07:00,79.1,75.0,30.01,East,91,0.0,1.0,86,0.00,,,0.03,0,weatherlink.com 1.10,2013-08-29 03:07:00,
2013-08-28 23:22:00,78.7,74.0,30.01,East,91,0.0,0.0,86,0.00,,,0.03,0,weatherlink.com 1.10,2013-08-29 03:22:00,
2013-08-28 23:37:00,78.5,75.0,30.02,East,91,1.0,2.0,88,0.00,,,0.03,0,weatherlink.com 1.10,2013-08-29 03:37:00,
2013-08-28 23:52:00,77.8,73.0,30.02,ESE,113,3.0,6.0,84,0.00,,,0.03,0,weatherlink.com 1.10,2013-08-29 03:52:00,